YAOGAN 28 (41026 NORAD) Tracking and Keplerian Element Data

This shows tracking and keplerian element data for the satellite.

Feedback or suggestion? Click here.




ElementValue
Catalog41026
NameYAOGAN 28
Epoch Orbit16845
Epoch Day317.85850416
Epoch Year2018
RAAN85.1119
Inclination97.381
Eccentricity0.0007779
Argument of Perigee289.7105
Mean Anonmoly186.7893
Mean Motion15.29994991
Decay Rate1.355E-05
L11 41026U 15064A 18317.85850416 .00001355 00000-0 49246-4 0 9999
L22 41026 97.3810 85.1119 0007779 289.7105 186.7893 15.29994991168454

Live tracking and technical data element details for YAOGAN 28 (NORAD 41026). YAOGAN 28 can be tracked NOW for your location showing map with azimuth and elevation plus other details from your city location.

Track the satellite on the map from your city or location and see movement details for azimuth, elevation, latitude, longitude, range, height, and movement on the map or in text.







IsCatalogInMostPopularTable: catalog: 41026, numindb: 111
Update: records affected: 1



GetName: 41026 YAOGAN 28

Hit Count: updated at: Wed, 14 Nov 2018 11:32:56 GMT